FW6165 Crownsville MD US current weather conditions

sailwx.info

Wind from 299

Air temperature 19.4° C
Dewpoint 15.1° C

Last reported at 2020-Oct-01 15:52 UTC.
Time now 2020-Oct-01 16:37 UTC

Location: N 39°04' W 077°05'.
View on Google Maps.

See reports from other nearby stations

  
Tides and Currents Weather Stations Pressure Air Temp Water Temp Dewpoint Dewpoint Depression Visibility Wind Speed Wind Dir Waves Ship Positions
date/time (UTC)wind fromknots sea level pressurealtimeterstation pressurevisibilityair tempwater tempwave heightnotes
2020-Oct-01 15:52 299 19.4
2020-Oct-01 15:42 105 18.9
2020-Oct-01 15:32 105 18.3
2020-Oct-01 15:18 104 18.3
2020-Oct-01 14:52 104 18.3
2020-Oct-01 14:12 104 16.1
2020-Oct-01 14:02 105 15.6
2020-Oct-01 13:42 284 15.0
2020-Oct-01 13:32 284 14.4
2020-Oct-01 13:22 284 14.4
2020-Oct-01 13:12 284 14.4
2020-Oct-01 13:02 284 14.4
2020-Oct-01 12:42 284 13.9
2020-Oct-01 12:22 284 13.3
2020-Oct-01 12:12 284 13.3
2020-Oct-01 12:02 284 12.8
2020-Oct-01 11:42 284 12.2
2020-Oct-01 11:32 284 12.2
2020-Oct-01 11:22 284 12.2
2020-Oct-01 11:12 284 12.2
2020-Oct-01 11:02 284 12.2
2020-Oct-01 10:52 284 12.2
2020-Oct-01 10:42 284 12.2
2020-Oct-01 10:12 284 12.2
2020-Oct-01 10:02 284 12.2
2020-Oct-01 09:32 284 12.2
2020-Oct-01 09:22 284 12.2
2020-Oct-01 09:12 284 12.2
2020-Oct-01 09:02 284 12.8
2020-Oct-01 08:52 284 12.8
2020-Oct-01 08:32 284 12.8
2020-Oct-01 08:22 284 12.8
2020-Oct-01 08:02 284 12.8
2020-Oct-01 07:52 284 12.8
2020-Oct-01 07:42 284 12.8
2020-Oct-01 07:12 284 12.8
2020-Oct-01 07:02 284 12.8
2020-Oct-01 06:52 284 12.8
2020-Oct-01 06:32 284 12.8
2020-Oct-01 06:22 284 12.8
2020-Oct-01 06:12 284 12.8
2020-Oct-01 06:02 284 12.8
2020-Oct-01 05:52 284 12.8
2020-Oct-01 05:42 284 12.8
2020-Oct-01 04:52 284 12.8
2020-Oct-01 04:42 284 12.8
2020-Oct-01 04:22 284 13.3
2020-Oct-01 04:11 284 13.3
2020-Oct-01 03:41 284 13.3
2020-Oct-01 03:31 284 13.3
2020-Oct-01 03:21 284 13.3
2020-Oct-01 03:01 284 13.3
2020-Oct-01 02:51 284 13.3
2020-Oct-01 02:41 284 13.3
2020-Oct-01 02:11 284 13.9
2020-Oct-01 02:01 284 13.9
2020-Oct-01 01:51 284 13.3
2020-Oct-01 01:41 284 13.3
2020-Oct-01 01:31 284 13.3
2020-Oct-01 01:21 284 13.9
2020-Oct-01 00:51 284 13.9
2020-Oct-01 00:41 285 13.9
2020-Oct-01 00:31 284 13.9
2020-Oct-01 00:21 284 14.4
2020-Oct-01 00:11 284 14.4
2020-Sep-30 23:51 284 14.4
2020-Sep-30 23:41 284 15.0
2020-Sep-30 23:31 284 15.0
2020-Sep-30 23:11 284 15.6
2020-Sep-30 23:01 284 16.1
2020-Sep-30 22:51 284 16.1
2020-Sep-30 22:41 285 16.1
2020-Sep-30 22:31 285 16.7
2020-Sep-30 22:21 285 16.7
2020-Sep-30 21:51 285 17.2
2020-Sep-30 21:21 278 17.8
2020-Sep-30 20:51 278 18.3
2020-Sep-30 20:31 108 18.3
2020-Sep-30 20:21 108 18.9
2020-Sep-30 19:51 284 18.9
2020-Sep-30 19:41 266 0 gusting 0 18.9
2020-Sep-30 19:31 263 18.9
2020-Sep-30 19:21 122 18.9
2020-Sep-30 19:11 122 18.9
2020-Sep-30 19:01 320 0 gusting 0 18.9
2020-Sep-30 18:51 278 0 gusting 1 18.9
2020-Sep-30 18:41 278 18.9
2020-Sep-30 18:01 312 18.3
2020-Sep-30 17:51 232 18.3
2020-Sep-30 17:21 269 0 gusting 1 17.8
2020-Sep-30 16:50 248 0 gusting 0 17.8
2020-Sep-30 16:41 113 0 gusting 0 17.2
2020-Sep-30 16:30 050 17.2
2020-Sep-30 16:20 290 17.2
2020-Sep-30 15:51 273 16.7
2020-Sep-30 15:40 274 16.7
2020-Sep-30 15:30 307 16.1
2020-Sep-30 15:20 314 0 gusting 0 16.1
2020-Sep-30 15:10 294 0 gusting 0 15.6
2020-Sep-30 14:50 063 0 gusting 0 15.6
2020-Sep-30 14:40 264 15.0
2020-Sep-30 14:30 294 15.0
2020-Sep-30 14:20 080 0 gusting 1 15.0
2020-Sep-30 14:10 098 15.0
2020-Sep-30 13:40 093 14.4
2020-Sep-30 13:30 094 13.9
2020-Sep-30 13:20 094 13.9
2020-Sep-30 13:00 316 13.9
2020-Sep-30 12:50 318 13.3
2020-Sep-30 12:20 090 12.8
2020-Sep-30 11:50 091 12.8
2020-Sep-30 11:40 090 12.8
2020-Sep-30 11:20 090 12.8
2020-Sep-30 11:10 090 12.8
2020-Sep-30 10:50 090 13.3
2020-Sep-30 10:40 090 13.3
2020-Sep-30 10:20 091 13.3
2020-Sep-30 10:00 090 13.3
2020-Sep-30 09:50 090 13.3
2020-Sep-30 09:30 090 13.3
2020-Sep-30 09:10 091 13.3
2020-Sep-30 09:00 090 13.3
2020-Sep-30 08:49 090 13.3
2020-Sep-30 08:39 091 13.3
2020-Sep-30 08:29 090 13.3
2020-Sep-30 07:59 090 13.9
2020-Sep-30 07:49 081 13.9
2020-Sep-30 07:29 300 13.9
2020-Sep-30 07:19 314 13.3
2020-Sep-30 06:29 322 13.3
2020-Sep-30 06:19 008 13.3
2020-Sep-30 06:09 009 13.3
2020-Sep-30 05:59 009 13.3
2020-Sep-30 05:49 311 13.3
2020-Sep-30 05:29 065 13.3
2020-Sep-30 05:19 357 13.3
2020-Sep-30 05:09 357 13.3
2020-Sep-30 04:59 025 13.3
2020-Sep-30 04:39 308 13.3
2020-Sep-30 04:29 308 13.3
2020-Sep-30 04:19 312 13.9
2020-Sep-30 03:39 302 13.9
2020-Sep-30 03:19 302 14.4
2020-Sep-30 03:09 302 14.4
2020-Sep-30 02:49 302 15.0
2020-Sep-30 02:39 296 0 gusting 0 15.6
2020-Sep-30 02:29 290 0 gusting 0 15.6
2020-Sep-30 02:19 290 16.1
2020-Sep-30 02:09 289 16.1
2020-Sep-30 01:59 289 16.1
2020-Sep-30 01:49 289 16.1
2020-Sep-30 01:29 299 16.1
2020-Sep-30 00:39 305 17.2
2020-Sep-30 00:19 011 17.8
2020-Sep-29 23:29 287 20.6
2020-Sep-29 23:19 281 21.1
2020-Sep-29 23:09 281 21.7
2020-Sep-29 22:49 281 22.8
2020-Sep-29 22:29 163 23.3
2020-Sep-29 21:57 212 23.3
2020-Sep-29 21:47 212 23.3
2020-Sep-29 21:37 238 23.9
2020-Sep-29 21:27 149 23.9
2020-Sep-29 21:17 242 23.9
2020-Sep-29 21:07 230 0 gusting 0 23.9
2020-Sep-29 20:57 214 0 gusting 0 23.9
2020-Sep-29 20:27 167 23.9
2020-Sep-29 20:07 100 23.9
2020-Sep-29 19:57 099 23.9
2020-Sep-29 19:47 104 24.4
2020-Sep-29 19:37 304 24.4
2020-Sep-29 19:27 077 24.4
2020-Sep-29 19:17 077 0 gusting 1 24.4
2020-Sep-29 19:07 032 25.0
2020-Sep-29 18:37 101 24.4
2020-Sep-29 18:17 269 24.4
2020-Sep-29 18:07 269 24.4
2020-Sep-29 17:37 278 23.9
2020-Sep-29 17:27 278 23.9
2020-Sep-29 17:17 281 23.3
2020-Sep-29 16:57 281 23.3
2020-Sep-29 16:47 281 23.3
2020-Sep-29 16:37 281 23.3
2020-Sep-29 16:27 281 23.3
2020-Sep-29 16:07 271 23.3